DLH1PA KJFK-EDDF

Flight info

Callsign DLH1PA
Flight time N/A
Altitude 37000
Route MERIT DCT HFD DCT PUT DCT WITCH DCT ALLEX N565B TUDEP/M082F390 DCT 52N050W 53N040W 54N030W 55N020W DCT RESNO DCT NETKI/N0468F390 DCT BOFUM Q37 MALUD UL975 WAL M16 DOLAS DCT NAVPI DCT SOGPO DCT DIXAT DIXAT1A
Aircraft A343/H-SDE2E3FGHIJ4J5M1RWXY/LB1D1

Departure

Time 2026-05-06 13:27
Airport John F. Kennedy International Airport (KJFK)

Arrival

Time N/A
Airport Frankfurt Main Airport (EDDF)
Time Latitude Longitude Altitude Speed Heading
2026-05-06 12:33 40.64174 -73.79311 29 ft 0 kts 108°
2026-05-06 13:08 40.64176 -73.79321 28 ft 4 kts 107°
2026-05-06 13:08 40.64184 -73.79354 28 ft 4 kts 110°
2026-05-06 13:09 40.64196 -73.79385 28 ft 4 kts 135°
2026-05-06 13:09 40.64215 -73.79402 28 ft 4 kts 166°
2026-05-06 13:09 40.64238 -73.79398 28 ft 4 kts 215°
2026-05-06 13:09 40.64257 -73.79378 28 ft 4 kts 221°
2026-05-06 13:10 40.64277 -73.79354 28 ft 4 kts 225°
2026-05-06 13:10 40.64287 -73.79340 28 ft 2 kts 224°
2026-05-06 13:16 40.64286 -73.79342 28 ft 2 kts 224°
2026-05-06 13:16 40.64254 -73.79382 28 ft 12 kts 223°
2026-05-06 13:17 40.64208 -73.79469 28 ft 11 kts 250°
2026-05-06 13:17 40.64184 -73.79567 28 ft 11 kts 252°
2026-05-06 13:17 40.64165 -73.79673 30 ft 14 kts 259°
2026-05-06 13:17 40.64148 -73.79802 29 ft 1 kts 260°
2026-05-06 13:18 40.64143 -73.79816 29 ft 4 kts 245°
2026-05-06 13:18 40.64127 -73.79823 29 ft 3 kts 192°
2026-05-06 13:18 40.64115 -73.79809 29 ft 3 kts 122°
2026-05-06 13:18 40.64089 -73.79746 29 ft 13 kts 120°
2026-05-06 13:19 40.64035 -73.79623 26 ft 19 kts 121°
2026-05-06 13:19 40.63965 -73.79470 26 ft 19 kts 120°
2026-05-06 13:19 40.63898 -73.79320 27 ft 19 kts 121°
2026-05-06 13:19 40.63831 -73.79176 29 ft 17 kts 121°
2026-05-06 13:20 40.63774 -73.79046 32 ft 17 kts 120°
2026-05-06 13:20 40.63697 -73.78878 30 ft 23 kts 121°
2026-05-06 13:20 40.63615 -73.78707 30 ft 22 kts 122°
2026-05-06 13:20 40.63545 -73.78542 32 ft 20 kts 121°
2026-05-06 13:21 40.63464 -73.78362 28 ft 24 kts 121°
2026-05-06 13:21 40.63379 -73.78175 29 ft 24 kts 120°
2026-05-06 13:21 40.63329 -73.77964 29 ft 24 kts 88°
2026-05-06 13:21 40.63407 -73.77789 30 ft 22 kts 38°
2026-05-06 13:22 40.63544 -73.77679 29 ft 24 kts 30°
2026-05-06 13:22 40.63691 -73.77565 29 ft 25 kts 32°
2026-05-06 13:22 40.63839 -73.77445 28 ft 24 kts 32°
2026-05-06 13:22 40.63979 -73.77338 30 ft 23 kts 28°
2026-05-06 13:23 40.64109 -73.77238 29 ft 20 kts 31°
2026-05-06 13:23 40.64229 -73.77143 27 ft 21 kts 31°
2026-05-06 13:23 40.64356 -73.77044 26 ft 21 kts 30°
2026-05-06 13:23 40.64497 -73.76986 24 ft 20 kts
2026-05-06 13:24 40.64618 -73.76901 24 ft 20 kts 30°
2026-05-06 13:24 40.64747 -73.76801 26 ft 26 kts 30°
2026-05-06 13:24 40.64915 -73.76671 27 ft 28 kts 31°
2026-05-06 13:24 40.65076 -73.76545 30 ft 18 kts 31°
2026-05-06 13:25 40.65099 -73.76483 28 ft 4 kts 95°
2026-05-06 13:25 40.65088 -73.76450 26 ft 4 kts 120°
2026-05-06 13:25 40.65076 -73.76423 27 ft 4 kts 120°
2026-05-06 13:25 40.65049 -73.76371 26 ft 8 kts 133°
2026-05-06 13:26 40.65002 -73.76370 26 ft 6 kts 204°
2026-05-06 13:26 40.64965 -73.76400 26 ft 6 kts 211°
2026-05-06 13:26 40.64907 -73.76446 29 ft 24 kts 211°
2026-05-06 13:26 40.64610 -73.76676 25 ft 74 kts 210°
2026-05-06 13:27 40.64050 -73.77114 28 ft 114 kts 210°
2026-05-06 13:27 40.63263 -73.77736 32 ft 147 kts 212°
2026-05-06 13:27 40.62345 -73.78497 271 ft 159 kts 207°
2026-05-06 13:27 40.61399 -73.79230 767 ft 157 kts 210°
2026-05-06 13:28 40.60433 -73.79861 1344 ft 156 kts 200°
2026-05-06 13:28 40.59321 -73.79840 1964 ft 171 kts 172°
2026-05-06 13:28 40.58347 -73.78790 2591 ft 201 kts 132°
2026-05-06 13:28 40.58002 -73.76903 3114 ft 228 kts 100°
2026-05-06 13:29 40.58267 -73.74665 3211 ft 268 kts 77°
2026-05-06 13:29 40.58786 -73.72201 3550 ft 289 kts 81°
2026-05-06 13:29 40.59364 -73.69594 4128 ft 303 kts 71°